Regional Weather Roundup
Issued by NWS

Home | Current Version | Previous Version | Graphics & Text | Print | Product List | Glossary On
Versions: 1 2 3 4 5 6 7 8 9 10 11 12 13 14 15 16 17 18 19 20 21 22 23 24 25 26 27 28 29 30 31 32 33 34 35 36 37 38 39 40 41 42 43 44 45 46 47 48 49 50
000
ASUS43 KLSX 280007
RWRMO

WEATHER SUMMARY FOR MISSOURI
NATIONAL WEATHER SERVICE SPRINGFIELD MO
700 PM CDT TUE SEP 27 2016

NOTE: "FAIR" INDICATES FEW OR NO CLOUDS BELOW 12,000 FEET WITH NO
       SIGNIFICANT WEATHER AND/OR OBSTRUCTIONS TO VISIBILITY.
       CURRENT SKY AND/OR WEATHER CONDITIONS ARE NOT AVAILABLE FOR
       CHILLICOTHE AND FARMINGTON.

MOZ001>031-035>038-043-044-053-054-280100-
...NORTHERN AND WESTERN MISSOURI...

CITY           SKY/WX    TMP DP  RH WIND       PRES   REMARKS
KANSAS CTY INT CLEAR     73  53  49 SW3       29.87F
6HR MIN TEMP:  72; 6HR MAX TEMP:  79;

KANSAS C DTWN  CLEAR     76  53  44 SW5       29.86F
6HR MIN TEMP:  75; 6HR MAX TEMP:  81;

LEE`S SUMMIT   CLEAR     74  55  51 W3        29.88F
6HR MIN TEMP:  74; 6HR MAX TEMP:  80;

ST JOSEPH      CLEAR     70  52  52 NW5       29.86F
6HR MIN TEMP:  70; 6HR MAX TEMP:  81;

CHILLICOTHE      N/A     70  52  52 SW3       29.86F
6HR MIN TEMP:  70; 6HR MAX TEMP:  80;

KIRKSVILLE     CLEAR     67  47  48 W3        29.85S
6HR MIN TEMP:  67; 6HR MAX TEMP:  76;


$$
MOZ066>068-077>081-088>096-101>105-280100-
...SOUTHWEST MISSOURI...

CITY           SKY/WX    TMP DP  RH WIND       PRES   REMARKS
SPRINGFIELD    CLEAR     71  50  47 SW7       29.93F
6HR MIN TEMP:  71; 6HR MAX TEMP:  80;

JOPLIN         CLEAR     71  53  52 S8        29.94F
6HR MIN TEMP:  71; 6HR MAX TEMP:  80;

BRANSON        CLEAR     70  48  46 SW5       29.98F

$$
MOZ032>034-039>042-045>050-055>058-069>072-280100-
...CENTRAL MISSOURI...

CITY           SKY/WX    TMP DP  RH WIND       PRES   REMARKS
COLUMBIA       CLEAR     69  55  60 SW7       29.86F HAZE
6HR MIN TEMP:  69; 6HR MAX TEMP:  80;

JEFFERSON CITY CLEAR     74  52  46 SW7       29.85F
6HR MIN TEMP:  74; 6HR MAX TEMP:  81;

ROLLA          CLEAR     65  53  65 SW7       29.89S
6HR MIN TEMP:  65; 6HR MAX TEMP:  78;

SEDALIA        CLEAR     75  52  44 W6        29.88S
6HR MIN TEMP:  75; 6HR MAX TEMP:  82;

WHITEMAN AFB   CLEAR     73  55  53 SW5       29.87S
OSAGE BEACH    CLEAR     71  55  56 SW5       29.90S

$$
MOZ051-052-059>065-280100-
...EAST CENTRAL MISSOURI...

CITY           SKY/WX    TMP DP  RH WIND       PRES   REMARKS
ST LOUIS INTL  CLEAR     76  48  37 SW10      29.85S
6HR MIN TEMP:  76; 6HR MAX TEMP:  82;

SPIRIT OF STL  CLEAR     70  52  52 SW6       29.84S
6HR MIN TEMP:  70; 6HR MAX TEMP:  80;

ST CHARLES     CLEAR     72  51  47 SW7       29.83S
6HR MIN TEMP:  72; 6HR MAX TEMP:  81;


$$
MOZ072>076-082>087-097>100-106>115-280100-
...SOUTH CENTRAL AND SOUTHEAST MISSOURI...

CITY           SKY/WX    TMP DP  RH WIND       PRES   REMARKS
CAPE GIRARDEAU CLEAR     66  53  63 SW6       29.89F
6HR MIN TEMP:  66; 6HR MAX TEMP:  80;

FARMINGTON     CLEAR     68  53  58 SW6       29.91S
6HR MIN TEMP:  68; 6HR MAX TEMP:  77;

POPLAR BLUFF   CLEAR     69  56  62 S3        29.91F
6HR MIN TEMP:  69; 6HR MAX TEMP:  80;

WEST PLAINS    CLEAR     69  50  50 SW3       29.96F
6HR MIN TEMP:  69; 6HR MAX TEMP:  78;


$$


USA.gov is the U.S. government's official web portal to all federal, state and local government web resources and services.